Weather in Pinhais

Brazil     25°25′59″S   49°11′07″W
temp.,
°C
wind,
m/s
gust,
m/s
humid.,
%
clouds,
%
prec.,
mm/h
press.,
hPa
HPBL,
m
11 april, sun
sun1100:00+18nne1171100 0.0 101522
03:00+17nw117297 0.0 101525
06:00+15w11783 0.0 101615
09:00+22wnw13540 0.0 1017325
12:00+27w363250 0.0 10141725
15:00+27w463598 0.0 10121719
18:00+23nw24492 0.0 101269
21:00+20wnw24610 0.0 101487
12 april, mon
mon1200:00+18wnw25713 0.0 1014138
03:00+17wsw25775 0.0 1014131
06:00+16wsw24835 0.0 1016108
09:00+22sw23680 0.0 1017469
12:00+25sw236054 0.4 10151358
15:00+22se338446 3.4 1015402
18:00+18e3696100 0.5 1017340
21:00+17e3896100 0.6 1019486
13 april, tue
tue1300:00+16ese3895100 0.1 1019552
03:00+15ese2796100 0.2 1019499
06:00+15ese2697100 0.2 1020469
09:00+16ese2590100 0.3 1022596
12:00+18e2375100 0.1 1021830
15:00+19ese3369100 0.1 1019994
18:00+17e3484100 0.0 1020444
21:00+16e379192 0.1 1021394
14 april, wed
wed1400:00+14e379375 0.0 1020432
03:00+15e268998 0.1 1019519
06:00+14e3582100 0.1 1019582
09:00+16e347371 0.1 1021757
12:00+21e33515 0.0 10191273
15:00+22e434850 0.0 10171517
18:00+16e3783100 0.0 1019400
21:00+15e3787100 0.0 1020488
15 april, thu
thu1500:00+16e3682100 0.0 1020560
03:00+15e269093 0.0 1019341
06:00+15ene279491 0.0 1019354
09:00+17ene258378 0.1 1020551
12:00+23ene335227 0.0 10181324
15:00+24e434813 0.1 10151509
18:00+18e3680100 0.0 1017422
21:00+17e3787100 0.0 1018477